sat.trackr.live / text

‹ back to catalog

STARLINK-11175 [DTC]

NORAD 60191 · 2024-124J

PAYLOAD ACTIVE UNKNOWN

§ Identity

Operator
Country
US
Launch date
2024-07-03
Launch site
AFETR
Launch vehicle
Mass (kg)
RCS (m²)

Purposes: comms

External: N2YO · Heavens-Above · Gunter

§ Orbital elements

Epoch: 2026-05-24T17:24:42.824160Z

Period
91.73 min
Inclination
53.1592°
Eccentricity
0.0001084
Mean motion
15.69743381 rev/d
Perigee alt
358.9 km
Apogee alt
360.4 km
Semi-major
6,737.8 km
B*
4.2231e-5
RAAN
146.6257°
Arg perigee
75.0940°
Mean anomaly
285.0198°
Rev number
10,847

§ Raw data

STARLINK-11175 [DTC]1 60191U 24124J   26144.72549565  .00004537  00000+0  42231-4 0  99942 60191  53.1592 146.6257 0001084  75.0940 285.0198 15.69743381108473

JSON: /api/v1/satellites/60191 · /tle

For live sub-satellite position, see the globe view (requires WebGL).

§ Visibility from observer

Set your observer location to see the next 7 days of passes ≥ 10°. The values pass through the URL so the page stays shareable.

No JS? Fill the form by hand. The geolocation button needs JavaScript.